CXA584 CYUL-MDSD

Flight info

Callsign CXA584
Flight time N/A
Altitude 28000
Route FAWNS BUGSY ALB SBJ ENO HURTS CHIEZ Y291 JRDAN AR3 JAZZI Y307 NUCAR/N0493F270 L463 JUELE UL463 PTA UT20 KODIX KODIX2H
Aircraft B77L/H-SDE1E2E3FGHIJ2J3J4J5M1RWXY/LB1D1

Departure

Time N/A
Airport Montreal / Pierre Elliott Trudeau International Airport (CYUL)

Arrival

Time 2026-05-01 07:30
Airport Las Américas International Airport (MDSD)
Time Latitude Longitude Altitude Speed Heading
2026-05-01 07:23 18.39703 -69.79981 7430 ft 281 kts 146°
2026-05-01 07:23 18.36464 -69.77805 6716 ft 272 kts 146°
2026-05-01 07:24 18.34862 -69.76729 6321 ft 274 kts 146°
2026-05-01 07:24 18.33254 -69.75648 5925 ft 275 kts 146°
2026-05-01 07:24 18.31650 -69.74572 5503 ft 272 kts 146°
2026-05-01 07:24 18.30067 -69.73510 5124 ft 267 kts 146°
2026-05-01 07:25 18.28505 -69.72463 4749 ft 264 kts 146°
2026-05-01 07:25 18.26981 -69.71439 4384 ft 262 kts 145°
2026-05-01 07:25 18.25456 -69.70402 4086 ft 257 kts 141°
2026-05-01 07:25 18.24319 -69.69000 3782 ft 248 kts 114°
2026-05-01 07:26 18.23974 -69.67271 3486 ft 246 kts 87°
2026-05-01 07:26 18.24259 -69.65498 3189 ft 246 kts 75°
2026-05-01 07:26 18.24773 -69.63796 2988 ft 242 kts 68°
2026-05-01 07:26 18.25763 -69.62405 2950 ft 232 kts 37°
2026-05-01 07:27 18.27203 -69.61710 2883 ft 227 kts 12°
2026-05-01 07:27 18.28775 -69.61763 2630 ft 228 kts 352°
2026-05-01 07:27 18.30261 -69.62199 2328 ft 214 kts 345°
2026-05-01 07:27 18.31637 -69.62698 2075 ft 203 kts 343°
2026-05-01 07:28 18.32938 -69.63194 1729 ft 198 kts 342°
2026-05-01 07:28 18.34208 -69.63709 1468 ft 190 kts 342°
2026-05-01 07:28 18.35427 -69.64184 1203 ft 184 kts 345°
2026-05-01 07:28 18.36646 -69.64571 951 ft 180 kts 346°
2026-05-01 07:29 18.37829 -69.64985 771 ft 178 kts 342°
2026-05-01 07:29 18.38996 -69.65446 618 ft 178 kts 340°
2026-05-01 07:29 18.40138 -69.65895 357 ft 171 kts 343°
2026-05-01 07:29 18.41192 -69.66251 166 ft 148 kts 341°
2026-05-01 07:30 18.42086 -69.66580 78 ft 121 kts 340°
2026-05-01 07:30 18.42774 -69.66827 77 ft 85 kts 340°
2026-05-01 07:30 18.43220 -69.66990 71 ft 50 kts 340°
2026-05-01 07:30 18.43433 -69.67072 70 ft 18 kts 340°
2026-05-01 07:31 18.43559 -69.67119 69 ft 19 kts 340°
2026-05-01 07:31 18.43487 -69.67386 63 ft 18 kts 228°
2026-05-01 07:32 18.43300 -69.67525 58 ft 13 kts 170°
2026-05-01 07:32 18.43212 -69.67506 58 ft 9 kts 167°
2026-05-01 07:33 18.43147 -69.67502 58 ft 1 kts 228°
2026-05-01 07:33 18.43141 -69.67517 58 ft 1 kts 253°
2026-05-01 07:33 18.43139 -69.67542 57 ft 4 kts 307°
2026-05-01 07:34 18.43172 -69.67540 58 ft 7 kts 20°
2026-05-01 07:34 18.43300 -69.67537 58 ft 4 kts 333°
2026-05-01 07:34 18.43319 -69.67574 57 ft 8 kts 269°
2026-05-01 07:35 18.43283 -69.67621 56 ft 5 kts 211°
2026-05-01 07:35 18.43273 -69.67628 56 ft 3 kts 220°
2026-05-01 07:35 18.43249 -69.67648 55 ft 2 kts 215°
2026-05-01 07:35 18.43248 -69.67649 55 ft 0 kts 215°